Location: ?????oe
(44.4874°N, 135.7046°E)
Time: 02:18:49
(UTC+00:00)

Cosmos 2266 Rocket - Pass Details

Date: 13 December 2025
Orbit: 933 x 1007 km, 82.9° (Epoch: 12 January)

Event Time Altitude Azimuth Distance (km) Brightness Sun altitude
Rises 21:29:20 0° 198° (SSW) 3,717 7.1 -9.7°
Reaches altitude 10° 21:31:55 10° 203° (SSW) 2,767 6.4 -9.3°
Maximum altitude 21:38:11 58° 282° (WNW) 1,146 4.1 -8.3°
Drops below altitude 10° 21:44:24 10° 1° (N) 2,743 6.1 -7.3°
Sets 21:46:58 0° 5° (N) 3,684 6.8 -6.9°
